Regional Weather Roundup
Issued by NWS

Home | Current Version | Previous Version | Graphics & Text | Print | Product List | Glossary On
Versions: 1 2 3 4 5 6 7 8 9 10 11 12 13 14 15 16 17 18 19 20 21 22 23 24 25 26 27 28 29 30 31 32 33 34 35 36 37 38 39 40 41 42 43 44 45 46 47 48 49 50
284
ASUS43 KFSD 240610
RWRSD

WEATHER ROUNDUP FOR SOUTH DAKOTA
NATIONAL WEATHER SERVICE SIOUX FALLS SD
100 AM CDT MON APR 24 2017

NOTE: "FAIR" INDICATES FEW OR NO CLOUDS BELOW 12,000 FEET WITH NO
SIGNIFICANT WEATHER AND/OR OBSTRUCTIONS TO VISIBILITY.


SDZ001>005-009-010-012>017-240700-
NORTHWEST AND NORTH CENTRAL SOUTH DAKOTA

CITY           SKY/WX    TMP DP  RH WIND       PRES   REMARKS
BUFFALO          N/A     37  37 100 NE15      29.58F
FAITH            N/A     35  35 100 N15       29.71R WCI  25
MOBRIDGE       CLOUDY    39  32  76 NE18G24   29.63F
$$

SDZ012>016-024>037-041>051-057-063-072>074-240700-
SOUTHWEST AND SOUTH CENTRAL SOUTH DAKOTA

CITY           SKY/WX    TMP DP  RH WIND       PRES   REMARKS
RAPID CTY ARPT CLOUDY    44  41  89 N17       29.58F
PIERRE         MOCLDY    46  40  79 N7        29.56F
CUSTER         CLOUDY    47  38  71 NW3       29.65F
ELLSWORTH AFB  CLOUDY    45  45 100 NE17      29.56F
PHILIP         CLOUDY    44  39  82 N9        29.61R
PINE RIDGE     LGT RAIN  63  41  44 W13G30    29.58R
SPEARFISH      FAIR      48  46  93 SE10G17   29.57F
WINNER         FAIR      62  31  31 S23G33    29.61S
$$

SDZ004>011-016>023-039-040-240700-
NORTHEAST SOUTH DAKOTA

CITY           SKY/WX    TMP DP  RH WIND       PRES   REMARKS
ABERDEEN       MOCLDY    45  38  76 NE9       29.63F
WATERTOWN      CLOUDY    52  35  52 S13       29.69F
BROOKINGS      CLOUDY    56  31  38 S14       29.73F
SISSETON         N/A     42  38  85 E6        29.74F
$$

SDZ017-020-022-023-036>040-048>070-240700-
SOUTHEAST SOUTH DAKOTA

CITY           SKY/WX    TMP DP  RH WIND       PRES   REMARKS
SIOUX FALLS    PTCLDY    57  32  38 S21G29    29.75F
HURON          CLOUDY    56  34  43 S15       29.64F
CHAMBERLAIN    CLOUDY    62  33  33 SE17G26   29.61F
MITCHELL       CLOUDY    57  34  41 S16       29.68F
YANKTON        CLOUDY    57  32  38 S15       29.74F
$$

ABBREVIATIONS USED IN REMARKS
   TC - TEMPERATURE IN CELSIUS
  WCI - WIND CHILL INDEX
   HX - HEAT INDEX
  VSB - VISIBILITY





USA.gov is the U.S. government's official web portal to all federal, state and local government web resources and services.